EW6494 Weather Reports


time (UTC)temp
C
wind
direction
speed
KPH
gust
KPH
rain 1hr
cm
rain 24hr
cm
rain mn
cm
humidity
%
barometer
mb
20260505153023 12 243 0.0 0.0 0.00 0.03 0.03 92 1015.2
20260505151518 12 266 0.0 0.0 0.00 0.03 0.03 94 1015.0
20260505124514 11 46 0.0 1.6 0.03 0.05 0.03 94 1014.2
20260505123007 11 340 0.0 1.6 0.00 0.03 0.00 94 1014.3
20260505121508 11 228 0.0 1.6 0.00 0.03 0.00 94 1014.1
20260505120014 11 229 0.0 0.0 0.00 0.03 0.00 94 1014.1
20260505114504 11 230 0.0 0.0 0.00 0.03 0.00 93 1014.0
20260505113003 11 230 0.0 0.0 0.00 0.03 0.00 93 1014.1
20260505111507 11 230 0.0 0.0 0.00 0.03 0.00 93 1014.1
20260505101557 12 216 0.0 3.2 0.00 0.08 0.00 91 1013.7
20260505100058 12 236 0.0 3.2 0.00 0.08 0.00 91 1013.8
20260505094556 12 210 0.0 1.6 0.00 0.08 0.00 91 1013.8
20260505093100 12 221 0.0 1.6 0.00 0.08 0.00 91 1013.7
20260505091606 12 267 0.0 1.6 0.00 0.08 0.00 91 1013.6
20260505090053 12 249 0.0 0.0 0.00 0.08 0.00 91 1013.7
20260505084555 12 167 0.0 1.6 0.00 0.10 0.00 91 1013.7
20260505083058 12 262 0.0 1.6 0.00 0.10 0.00 91 1013.7
20260505081555 12 257 0.0 1.6 0.00 0.10 0.00 91 1013.9
20260505080050 12 192 0.0 1.6 0.00 0.10 0.00 91 1013.9
20260505074548 12 249 0.0 1.6 0.00 0.10 0.00 91 1014.0
20260505073054 12 184 0.0 1.6 0.00 0.10 0.00 91 1014.0
20260505071557 12 105 0.0 1.6 0.00 0.10 0.00 91 1014.0
20260505070048 12 109 0.0 1.6 0.00 0.10 0.00 91 1014.0
20260505064548 12 269 0.0 1.6 0.00 0.13 0.10 91 1013.9
20260505063045 12 283 0.0 1.6 0.00 0.13 0.10 91 1014.0
20260505061548 12 243 0.0 1.6 0.00 0.13 0.10 91 1014.0
20260505060050 12 228 0.0 4.8 0.00 0.13 0.10 91 1014.1
20260505054543 12 236 0.0 3.2 0.00 0.13 0.10 91 1014.1
20260505053043 12 111 1.6 8.0 0.00 0.13 0.10 91 1014.0
20260505051558 12 214 0.0 4.8 0.00 0.13 0.10 90 1014.0
20260505041541 12 215 0.0 3.2 0.00 0.13 0.10 90 1013.6
20260505040041 12 258 0.0 3.2 0.00 0.13 0.10 90 1013.4
20260505034540 12 233 0.0 3.2 0.00 0.13 0.10 89 1013.4
20260505033040 12 208 0.0 6.4 0.00 0.13 0.10 89 1013.2
20260505031544 12 284 1.6 4.8 0.00 0.13 0.10 89 1013.1
20260505030040 12 200 0.0 4.8 0.00 0.13 0.10 88 1012.9
20260505024537 12 195 0.0 6.4 0.00 0.13 0.10 88 1012.9
20260505023038 13 354 0.0 6.4 0.00 0.13 0.10 87 1012.9
20260505021537 13 184 1.6 6.4 0.00 0.13 0.10 86 1012.7
20260505020036 13 205 1.6 4.8 0.00 0.13 0.10 86 1012.8
20260505014536 13 263 1.6 6.4 0.00 0.13 0.10 85 1012.9
20260505013053 13 300 1.6 9.7 0.00 0.13 0.10 84 1013.0
20260505011535 14 233 0.0 4.8 0.00 0.13 0.10 83 1013.1
20260505010035 13 291 4.8 14.5 0.00 0.13 0.10 83 1013.3
20260505004534 15 309 1.6 11.3 0.00 0.13 0.10 81 1013.3
20260505003034 15 311 3.2 12.9 0.00 0.13 0.10 79 1013.3
20260505001533 16 286 4.8 14.5 0.00 0.13 0.10 77 1013.3
20260505000036 15 224 3.2 9.7 0.00 0.13 0.10 78 1013.4
20260504234534 15 212 1.6 9.7 0.00 0.13 0.10 79 1013.4
20260504233030 15 315 3.2 14.5 0.00 0.13 0.10 82 1013.6
20260504231529 15 257 3.2 9.7 0.00 0.13 0.10 79 1013.6
20260504230029 15 325 3.2 12.9 0.00 0.13 0.10 79 1013.6
20260504224529 15 296 4.8 11.3 0.00 0.13 0.10 79 1014.0
20260504223027 15 212 4.8 14.5 0.00 0.13 0.10 77 1014.0
20260504221525 15 278 4.8 11.3 0.00 0.13 0.10 79 1014.1
20260504220037 15 293 3.2 9.7 0.00 0.13 0.10 81 1014.3
20260504214526 15 297 3.2 12.9 0.00 0.13 0.10 81 1014.3
20260504213025 15 259 4.8 16.1 0.00 0.13 0.10 83 1014.2
20260504211532 15 179 3.2 8.0 0.00 0.13 0.10 83 1014.1
20260504210021 14 288 4.8 16.1 0.00 0.13 0.10 84 1014.3
20260504204523 14 280 6.4 16.1 0.00 0.13 0.10 84 1014.3
20260504203026 15 179 6.4 14.5 0.00 0.13 0.10 80 1014.2
20260504201521 15 35 4.8 11.3 0.00 0.13 0.10 82 1014.2
20260504200018 15 239 4.8 14.5 0.00 0.13 0.10 82 1014.2
20260504194517 15 275 4.8 11.3 0.00 0.13 0.10 81 1014.1
20260504193021 15 229 6.4 12.9 0.00 0.13 0.10 82 1014.1
20260504191520 14 286 3.2 16.1 0.00 0.13 0.10 85 1014.1
20260504190014 14 270 6.4 19.3 0.00 0.13 0.10 83 1014.1
20260504184513 14 293 3.2 9.7 0.00 0.13 0.10 85 1014.1
20260504183011 14 288 4.8 12.9 0.00 0.13 0.10 86 1014.1
20260504181514 13 187 3.2 11.3 0.00 0.13 0.10 89 1014.0
20260504180005 12 259 4.8 14.5 0.00 0.13 0.10 92 1014.0
20260504174505 12 311 3.2 16.1 0.00 0.13 0.10 93 1014.0
20260504173004 12 216 1.6 8.0 0.00 0.13 0.10 93 1014.0
20260504171507 12 225 1.6 8.0 0.00 0.13 0.10 92 1013.9